Weather History for KMIW - March, 2013

Change the Weather History Date:

Friday, March 15, 2013

  Actual Average Record
Temperature  
Mean Temperature 38 °F 36 °F  
Max Temperature 46 °F 46 °F 79 °F (2012)
Min Temperature 29 °F 26 °F 6 °F (1997)
Degree Days  
Heating Degree Days 27 29  
Month to date heating degree days 588 491  
Since 1 July heating degree days 5592 5894  
Cooling Degree Days 0 0  
Month to date cooling degree days 0 0  
Year to date cooling degree days 0 0  
Moisture  
Dew Point 32 °F    
Average Humidity 88    
Maximum Humidity 100    
Minimum Humidity 76    
Precipitation  
Precipitation 0.00 in 0.06 in 0.10 in (2004)
Month to date precipitation 1.43 0.78  
Sea Level Pressure  
Sea Level Pressure 29.87 in    
Wind  
Wind Speed 6 mph (East)    
Max Wind Speed 16 mph    
Max Gust Speed 18 mph    
Visibility 4 miles    
Events      
T = Trace of Precipitation, MM = Missing Value Source: NWS Daily Summary

Daily Weather History Graph

Daily Weather History Graph

Search for Another Location

Airport or City:

Trip Planner

Search our weather history database for the weather conditions in past years. The results will help you decide how hot, cold, wet, or windy it might be!

Date:

Astronomy

Mar. 15, 2013 Rise Set
Actual Time 7:23 AM CDT 7:18 PM CDT
Civil Twilight 6:55 AM CDT 7:46 PM CDT
Nautical Twilight 6:22 AM CDT 8:18 PM CDT
Astronomical Twilight 5:49 AM CDT 8:52 PM CDT
Moon 9:09 AM CDT (3/15) 11:38 PM CDT (3/15)
Length of Visible Light 12h 51m
Length of Day
11h 55m
Waxing Crescent, 15% of the Moon is Illuminated
Mar 15
Waxing Crescent
Mar 19
First Quarter
Mar 27
Full
Apr 2
Last Quarter
Apr 10
New

Hourly Weather History & Observations

Time (CDT) Temp. Windchill Dew Point Humidity Pressure Visibility Wind Dir Wind Speed Gust Speed Precip Events Conditions
12:53 AM 28.9 °F 22.8 °F 28.0 °F 96% 30.05 in 4.0 mi WSW 5.8 mph - N/A   Clear
1:53 AM 30.0 °F - 28.0 °F 92% 30.03 in 5.0 mi Calm Calm - N/A   Clear
2:53 AM 30.0 °F 26.5 °F 27.0 °F 88% 30.02 in 6.0 mi SW 3.5 mph - N/A   Clear
3:53 AM 30.0 °F - 27.0 °F 88% 29.98 in 6.0 mi Calm Calm - N/A   Clear
4:53 AM 30.0 °F 26.5 °F 28.0 °F 92% 29.97 in 6.0 mi WSW 3.5 mph - N/A   Clear
5:53 AM 30.0 °F - 28.0 °F 92% 29.97 in 4.0 mi Calm Calm - N/A   Clear
6:53 AM 30.9 °F 26.2 °F 28.9 °F 92% 29.98 in 4.0 mi North 4.6 mph - N/A   Mostly Cloudy
7:51 AM 30.2 °F 26.7 °F 30.2 °F 100% 29.91 in 2.5 mi East 3.5 mph - N/A   Clear
7:53 AM 30.9 °F 27.5 °F 30.0 °F 96% 29.94 in 2.5 mi East 3.5 mph - N/A   Clear
8:02 AM 32.0 °F 28.7 °F 30.2 °F 93% 29.90 in 3.0 mi SSE 3.5 mph - N/A   Scattered Clouds
8:16 AM 32.0 °F 27.5 °F 30.2 °F 93% 29.90 in 2.5 mi SSE 4.6 mph - N/A   Mostly Cloudy
8:25 AM 32.0 °F 28.7 °F 30.2 °F 93% 29.90 in 3.0 mi South 3.5 mph - N/A   Mostly Cloudy
8:44 AM 32.0 °F - 30.2 °F 93% 29.89 in 2.5 mi Calm Calm - N/A   Partly Cloudy
8:53 AM 32.0 °F - 30.0 °F 92% 29.92 in 3.0 mi Calm Calm - N/A   Partly Cloudy
9:04 AM 32.0 °F 27.5 °F 30.2 °F 93% 29.89 in 2.5 mi South 4.6 mph - N/A   Mostly Cloudy
9:25 AM 33.8 °F 28.6 °F 30.2 °F 87% 29.88 in 3.0 mi SSE 5.8 mph - N/A   Overcast
9:53 AM 34.0 °F 28.8 °F 30.9 °F 89% 29.90 in 3.0 mi SSE 5.8 mph - N/A   Overcast
10:53 AM 36.0 °F 30.3 °F 33.1 °F 89% 29.87 in 3.0 mi ESE 6.9 mph - N/A   Overcast
11:53 AM 39.0 °F 34.0 °F 35.1 °F 86% 29.86 in 4.0 mi East 6.9 mph - N/A   Mostly Cloudy
12:53 PM 39.9 °F 36.7 °F 37.0 °F 89% 29.86 in 4.0 mi East 4.6 mph - N/A   Partly Cloudy
1:53 PM 43.0 °F 37.2 °F 37.9 °F 82% 29.81 in 6.0 mi East 10.4 mph - N/A   Haze
2:53 PM 44.1 °F 37.1 °F 39.0 °F 82% 29.75 in 6.0 mi ESE 15.0 mph - N/A   Haze
3:53 PM 45.0 °F 40.6 °F 39.0 °F 80% 29.76 in 8.0 mi East 8.1 mph - N/A   Clear
4:53 PM 46.0 °F 41.4 °F 39.9 °F 79% 29.78 in 7.0 mi ENE 9.2 mph - N/A   Clear
5:53 PM 39.9 °F 33.9 °F 37.9 °F 93% 29.76 in 3.0 mi NE 9.2 mph - N/A   Clear
6:53 PM 37.9 °F 31.5 °F 36.0 °F 93% 29.77 in 4.0 mi NE 9.2 mph - N/A   Clear
7:53 PM 37.0 °F 30.4 °F 34.0 °F 89% 29.75 in 6.0 mi East 9.2 mph - N/A   Clear
8:53 PM 35.1 °F 31.0 °F 34.0 °F 96% 29.75 in 5.0 mi East 4.6 mph - N/A   Clear
9:53 PM 35.1 °F 31.0 °F 33.1 °F 92% 29.78 in 4.0 mi North 4.6 mph - N/A   Clear
10:53 PM 34.0 °F 27.2 °F 32.0 °F 92% 29.80 in 3.0 mi North 8.1 mph - N/A   Partly Cloudy
11:41 PM 33.8 °F 25.3 °F 32.0 °F 93% 29.78 in 3.0 mi North 11.5 mph - N/A   Mostly Cloudy
11:53 PM 34.0 °F 25.0 °F 32.0 °F 92% 29.81 in 3.0 mi North 12.7 mph - N/A   Overcast